Showing default

DSN-3, 61733

Orbit data source: Space-Track

DSN-3, 61733 is a payload satellite owned by DSN Corp. (JP) in GEO that was launched on Mon, 04 Nov 2024 UTC via a H3-22S launch vehicle from the Tanegashima Space Center (TNSTA). Payload-class satellites include a variety of spacecraft equipped with specific instruments for various scientific and technological missions. These include communications satellites like Starlink; space stations such as the ISS; scientific satellites like the Hubble; Earth observation satellites from companies like Planet Labs, Umbra, and HawkEye 360; GPS; miniature CubeSats for education and research; and military/defense satellites.

Not visible in the next 10 days
Identifier
61733, 2024-198A
Orbit
GEO
Last TLE update
10 hours ago
Origin
Manufacturer
MELCO/NECST
Mission
Operational Defense Communications
Bus & Motor
DS-2000, R-4D
Mass
5,000 kg wet, 2,500 kg dry
Launch date (UTC)
2024-11-04 (8 months ago)
Launch vehicle
H3-22S
Launch site
Tanegashima Space Center (TNSTA)
Object type
Payload
Rocket body
Debris
Shape & HBR
Box + 2 Pan, 30 m
Radar Cross Section
67.841 m², Large (>1 m²)

Expand to show TLE details & history

TLE from 10 hours ago
0 DSN-3
1 61733U 24198A   25182.80994597 -.00000246  00000-0  00000-0 0  9996
2 61733   0.0185 350.8287 0001227 111.6407 253.2430  1.00270843  2401
Epoch: 2025-07-01T19:26Z
TLE epoch observation values (Epoch: 2025-07-01T19:26:19.331Z)
Latitude
-0.00293°
Longitude
144.02975°
Altitude
35,787.844 km
Speed
3.075 km/s
True Right ascension
23h 42m 50s
True Declination
0° 00' 11"
Sunlit
Object was in daylight at epoch
Visualization orbit readout
Latitude
0.01579°
Longitude
-58.36165°
Altitude
35,783.109 km
Speed
3.075 km/s
Apparent Right ascension
09h 49m 27s
Apparent Declination
-5° 15' 15"
Sunlit
Object is in daylight
Visualization observer readout
Local Sidereal Time
17:36:35
Azimuth
283.761° WNW
Elevation
-23.762°
Doppler factor
1
Orbital elements
Apogee altitude
35,793.103 km
Perigee altitude
35,782.756 km
Semi-major axis
42,166.066 km
Eccentricity
0.00012
Inclination
0.0185°
RAAN
350.8287°
Arg. of periapsis
111.6407°
True anomaly
Unknown
Mean anomaly
253.243°
Eccentric anomaly
Unknown
Mean motion
0.25067 °/min
Orbital period
1,436.16 mins
BSTAR
0
Loading historical data...
61733 neighbors
Loading maneuver chart data...
Loading SW <> Apogee altitude chart data...
Loading historical data...
Loading historical data...
Loading historical data...
Loading historical data...
Loading historical data...
Loading historical data...
Loading historical data...
Other satellites on launch #198 in the year 2024 (2024-11-04 UTC)

DSN-3 Visibility

Observer location: undefined°, undefined°

DSN-3 is likely not visible in the next few days
Span
Click to sort rows by Start time (UTC) header in descending order
Start Az.
Max El. time (UTC)
Max El. Az.
Max El.
End time (UTC)
End Az.
|